Location: Harwich
(41.7160°N, 69.9939°W)
Time: 10:03:51
(UTC+02:00)

VELOX 1 - Visible Passes

Search period start: 16 September 2024 00:00
Search period end: 26 September 2024 00:00
Orbit: 599 x 611 km, 98.3° (Epoch: 15 September)

Date Brightness Start Highest point End Pass type
(mag) Time Alt. Az. Time Alt. Az. Time Alt. Az.
16 Sep ? 03:26:06 10° NNE 03:27:23 19° N 03:27:23 19° N visible
17 Sep ? 03:38:50 10° N 03:39:57 18° N 03:39:57 18° N visible
18 Sep ? 03:51:35 10° N 03:52:29 16° N 03:52:29 16° N visible
19 Sep ? 04:04:24 10° N 04:05:01 13° N 04:05:01 13° N visible
20 Sep ? 04:17:16 10° NNW 04:17:30 11° NNW 04:17:30 11° NNW visible
